Weather History for Louisville Bowman, KY

Change the Weather History Date:

Thursday, November 22, 2012

  Actual Average Record
Temperature  
Mean Temperature 51 °F 45 °F  
Max Temperature 67 °F 53 °F 74 °F (1992)
Min Temperature 35 °F 36 °F 10 °F (1964)
Degree Days  
Heating Degree Days 14 20  
Month to date heating degree days 417 350  
Since 1 July heating degree days 734 626  
Cooling Degree Days 0 0  
Month to date cooling degree days 0 0  
Year to date cooling degree days 1851 1442  
Growing Degree Days 1 (Base 50)    
Moisture  
Dew Point 40 °F    
Average Humidity 71    
Maximum Humidity 100    
Minimum Humidity 42    
Precipitation  
Precipitation 0.00 in 0.12 in 1.47 in (1953)
Month to date precipitation 0.80 2.61  
Year to date precipitation 38.46 40.53  
Sea Level Pressure  
Sea Level Pressure 30.16 in    
Wind  
Wind Speed 3 mph (South)    
Max Wind Speed 14 mph    
Max Gust Speed 20 mph    
Visibility 8 miles    
Events      
T = Trace of Precipitation, MM = Missing Value Source: NWS Daily Summary

Daily Weather History Graph

Daily Weather History Graph

Search for Another Location

Airport:

Trip Planner

Search our weather history database for the weather conditions in past years. The results will help you decide how hot, cold, wet, or windy it might be!

Date:

Astronomy

Nov. 22, 2012 Rise Set
Actual Time 7:31 AM EST 5:25 PM EST
Civil Twilight 7:03 AM EST 5:54 PM EST
Nautical Twilight 6:30 AM EST 6:26 PM EST
Astronomical Twilight 5:59 AM EST 6:58 PM EST
Moon 2:07 PM EST (11/22) 1:55 AM EST (11/22)
Length of Visible Light 10h 51m
Length of Day
9h 53m
Waxing Gibbous, 71% of the Moon is Illuminated
Nov 22
Waxing Gibbous
Nov 28
Full
Dec 6
Last Quarter
Dec 13
New
Dec 20
First Quarter

Hourly Weather History & Observations

Time (EST) Temp. Dew Point Humidity Pressure Visibility Wind Dir Wind Speed Gust Speed Precip Events Conditions
12:53 AM 42.1 °F 37.9 °F 85% 30.22 in 7.0 mi Calm Calm - N/A   Clear
1:53 AM 41.0 °F 37.9 °F 89% 30.22 in 6.0 mi Calm Calm - N/A   Clear
2:53 AM 39.0 °F 37.0 °F 93% 30.22 in 6.0 mi Calm Calm - N/A   Clear
3:53 AM 37.9 °F 36.0 °F 93% 30.22 in 6.0 mi Calm Calm - N/A   Clear
4:53 AM 39.0 °F 36.0 °F 89% 30.22 in 7.0 mi Calm Calm - N/A   Clear
5:53 AM 37.0 °F 35.1 °F 93% 30.22 in 6.0 mi Calm Calm - N/A   Clear
6:53 AM 36.0 °F 34.0 °F 93% 30.23 in 4.0 mi Calm Calm - N/A   Clear
7:53 AM 36.0 °F 35.1 °F 97% 30.23 in 3.0 mi Calm Calm - N/A   Clear
8:53 AM 41.0 °F 37.9 °F 89% 30.23 in 5.0 mi Calm Calm - N/A   Clear
9:53 AM 48.0 °F 41.0 °F 77% 30.23 in 6.0 mi Variable 3.5 mph - N/A   Haze
10:53 AM 55.0 °F 41.0 °F 59% 30.22 in 10.0 mi SSW 4.6 mph - N/A   Clear
11:53 AM 60.1 °F 42.1 °F 51% 30.19 in 10.0 mi Variable 6.9 mph - N/A   Clear
12:53 PM 64.0 °F 42.1 °F 45% 30.14 in 10.0 mi South 11.5 mph 18.4 mph N/A   Clear
1:53 PM 66.0 °F 42.1 °F 42% 30.12 in 10.0 mi South 8.1 mph - N/A   Clear
2:53 PM 66.9 °F 43.0 °F 42% 30.11 in 10.0 mi South 8.1 mph - N/A   Clear
3:53 PM 66.0 °F 42.1 °F 42% 30.11 in 10.0 mi SSW 9.2 mph - N/A   Clear
4:53 PM 64.0 °F 42.1 °F 45% 30.10 in 10.0 mi SSW 6.9 mph - N/A   Clear
5:53 PM 62.1 °F 42.1 °F 48% 30.09 in 10.0 mi South 4.6 mph - N/A   Clear
6:53 PM 59.0 °F 43.0 °F 55% 30.09 in 10.0 mi Calm Calm - N/A   Clear
7:53 PM 57.0 °F 43.0 °F 59% 30.08 in 10.0 mi SSE 3.5 mph - N/A   Clear
8:53 PM 55.9 °F 43.0 °F 62% 30.08 in 10.0 mi South 3.5 mph - N/A   Clear
9:53 PM 55.9 °F 42.1 °F 60% 30.07 in 10.0 mi South 4.6 mph - N/A   Clear
10:53 PM 55.0 °F 42.1 °F 62% 30.07 in 10.0 mi Calm Calm - N/A   Clear
11:53 PM 53.1 °F 42.1 °F 66% 30.06 in 10.0 mi Calm Calm - N/A   Clear